Location: Arrodets-la-Barthe
(43.0306°N, 0.2829°E)
Time: 13:04:54
(UTC+00:00)

STRAND 1 - Pass Details

Date: 09 April 2023
Orbit: 767 x 779 km, 98.4° (Epoch: 28 May)

Event Time Altitude Azimuth Distance (km) Brightness Sun altitude
Rises 18:56:50 0° 12° (NNE) 3,247 ? -4.9°
Reaches altitude 10° 18:59:09 10° 12° (NNE) 2,316 ? -5.3°
Maximum altitude 19:04:15 82° 285° (WNW) 781 ? -6.2°
Drops below altitude 10° 19:09:20 10° 199° (SSW) 2,302 ? -7.1°
Sets 19:11:38 0° 198° (SSW) 3,226 ? -7.5°
